CASE2 Weather Reports


Display with metric or nautical units.
time (UTC)temp
F
wind
direction
speed
MPH
gust
MPH
rain 1hr
in
rain 24hr
in
rain mn
in
humidity
%
barometer
mb
20260510214546 42 23 0.0 0.0 0.00 0.00 0.00 90 1008.0
20260510213044 42 23 0.0 0.0 0.00 0.00 0.00 90 1008.1
20260510211542 43 23 0.0 0.0 0.00 0.00 0.00 90 1008.4
20260510210023 44 23 0.0 0.0 0.00 0.00 0.00 89 1008.6
20260510204521 44 23 0.0 0.0 0.00 0.00 0.00 89 1008.7
20260510203003 44 23 0.0 0.0 0.00 0.00 0.00 88 1008.9
20260510201501 45 23 0.0 0.0 0.00 0.00 0.00 88 1008.9
20260510200045 45 23 0.0 0.0 0.00 0.00 0.00 87 1008.9
20260510194543 46 23 0.0 0.0 0.00 0.00 0.00 86 1009.0
20260510193038 46 23 0.0 0.0 0.00 0.00 0.00 85 1008.9
20260510191536 47 23 0.0 0.0 0.00 0.00 0.00 83 1008.9
20260510190034 49 23 0.0 0.0 0.00 0.00 0.00 81 1008.9
20260510184532 50 23 0.0 0.0 0.00 0.00 0.00 79 1009.0
20260510183035 51 23 0.0 0.0 0.00 0.00 0.00 78 1009.2
20260510181525 51 23 0.0 0.0 0.00 0.00 0.00 77 1009.3
20260510180037 52 23 0.0 1.0 0.00 0.00 0.00 77 1009.4
20260510174523 52 23 0.0 1.0 0.00 0.00 0.00 76 1009.6
20260510173022 52 309 0.0 0.0 0.00 0.00 0.00 76 1009.7
20260510171503 52 309 0.0 0.0 0.00 0.00 0.00 76 1009.9
20260510170002 52 309 0.0 1.0 0.00 0.00 0.00 75 1010.0
20260510164557 53 306 0.0 4.0 0.00 0.00 0.00 74 1010.1
20260510163049 54 338 0.0 4.0 0.00 0.00 0.00 73 1010.1
20260510161550 55 320 0.0 6.0 0.00 0.00 0.00 73 1010.3
20260510160057 55 336 0.0 2.0 0.00 0.00 0.00 72 1010.4
20260510154552 55 9 0.0 3.0 0.00 0.00 0.00 72 1010.5
20260510153043 56 9 0.0 4.0 0.00 0.00 0.00 70 1010.7
20260510151542 55 32 0.0 3.0 0.00 0.00 0.00 67 1010.8
20260510150039 55 332 0.0 3.0 0.00 0.00 0.00 66 1010.9
20260510144529 55 309 0.0 5.0 0.00 0.00 0.00 64 1011.0
20260510143034 55 291 0.0 6.0 0.00 0.00 0.00 66 1011.2
20260510141525 56 314 0.0 4.0 0.00 0.00 0.00 70 1011.3
20260510140024 56 317 0.0 4.0 0.00 0.00 0.00 69 1011.4
20260510134522 56 360 0.0 5.0 0.00 0.00 0.00 68 1011.5
20260510133019 56 296 1.0 4.0 0.00 0.00 0.00 68 1011.5
20260510131517 56 12 0.0 3.0 0.00 0.00 0.00 74 1011.5
20260510130021 56 311 0.0 4.0 0.00 0.00 0.00 79 1011.8
20260510124505 55 302 0.0 3.0 0.00 0.00 0.00 79 1011.9
20260510123006 54 333 0.0 3.0 0.00 0.00 0.00 80 1011.9
20260510121601 55 313 1.0 5.0 0.00 0.00 0.00 79 1012.1
20260510120059 56 287 1.0 5.0 0.00 0.00 0.00 77 1012.2
20260510114600 55 16 0.0 4.0 0.00 0.00 0.00 77 1012.4
20260510113101 54 315 0.0 3.0 0.00 0.00 0.00 77 1012.5
20260510111607 55 331 0.0 4.0 0.00 0.00 0.00 75 1012.7
20260510110050 56 328 0.0 6.0 0.00 0.00 0.00 74 1012.8
20260510104542 56 302 0.0 3.0 0.00 0.00 0.00 72 1012.9
20260510103036 56 360 0.0 3.0 0.00 0.00 0.00 73 1013.0
20260510101528 54 233 0.0 4.0 0.00 0.00 0.00 75 1013.2
20260510100025 54 360 0.0 3.0 0.00 0.00 0.00 76 1013.3
20260510094524 53 360 0.0 2.0 0.00 0.00 0.00 76 1013.5
20260510093021 53 191 0.0 6.0 0.00 0.00 0.00 76 1013.7
20260510091540 53 198 0.0 3.0 0.00 0.00 0.00 77 1014.0
20260510090019 52 360 2.0 7.0 0.00 0.00 0.00 77 1014.0
20260510084505 52 198 0.0 5.0 0.00 0.00 0.00 76 1013.9
20260510083004 52 211 2.0 5.0 0.00 0.00 0.00 77 1013.9
20260510081507 52 360 0.0 4.0 0.00 0.00 0.00 78 1014.0
20260510074556 50 182 0.0 5.0 0.00 0.00 0.00 83 1014.1
20260510073052 49 210 2.0 6.0 0.00 0.00 0.00 86 1014.3
20260510071548 48 360 0.0 4.0 0.00 0.00 0.00 91 1014.3
20260510070048 46 360 0.0 4.0 0.00 0.00 0.00 92 1014.5
20260510064549 44 342 0.0 0.0 0.00 0.00 0.00 93 1014.6
20260510063028 44 342 0.0 0.0 0.00 0.00 0.00 93 1014.8
20260510061532 43 342 0.0 0.0 0.00 0.00 0.00 93 1014.7
20260510060028 42 342 0.0 0.0 0.00 0.00 0.00 93 1014.8
20260510054513 42 342 0.0 0.0 0.00 0.00 0.00 93 1014.8
20260510053010 41 342 0.0 0.0 0.00 0.00 0.00 93 1015.2
20260510051508 41 342 0.0 0.0 0.00 0.00 0.00 93 1015.2
20260510050006 40 342 0.0 0.0 0.00 0.00 0.00 93 1015.3
20260510044553 39 342 0.0 0.0 0.00 0.00 0.00 93 1015.5
20260510043041 38 342 0.0 0.0 0.00 0.00 0.00 93 1015.6
20260510041519 38 342 0.0 0.0 0.00 0.00 0.00 93 1015.9
20260510040018 37 342 0.0 0.0 0.00 0.00 0.00 93 1016.2
20260510034605 36 342 0.0 0.0 0.00 0.00 0.00 93 1016.1
20260510033058 35 342 0.0 0.0 0.00 0.00 0.00 92 1016.2
20260510031604 35 342 0.0 0.0 0.00 0.00 0.00 92 1016.3
20260510030058 35 342 0.0 0.0 0.00 0.00 0.00 92 1016.3
20260510024552 34 342 0.0 0.0 0.00 0.00 0.00 92 1016.5
20260510023049 34 342 0.0 0.0 0.00 0.00 0.00 92 1016.7
20260510021548 34 342 0.0 0.0 0.00 0.00 0.00 92 1016.8
20260510020048 34 342 0.0 0.0 0.00 0.00 0.00 92 1016.8
20260510014546 34 342 0.0 0.0 0.00 0.00 0.00 91 1017.0
20260510013051 34 342 0.0 0.0 0.00 0.00 0.00 91 1017.2
20260510011545 34 342 0.0 0.0 0.00 0.00 0.00 91 1017.4
20260510010042 34 342 0.0 0.0 0.00 0.00 0.00 90 1017.6
20260510004540 34 342 0.0 0.0 0.00 0.00 0.00 90 1017.8
20260510003048 34 342 0.0 0.0 0.00 0.00 0.00 90 1018.2
20260510001515 35 342 0.0 0.0 0.00 0.00 0.00 90 1018.3
20260510000013 35 342 0.0 0.0 0.00 0.00 0.00 89 1018.6
20260509234604 35 342 0.0 0.0 0.00 0.00 0.00 89 1018.8
20260509233056 36 342 0.0 0.0 0.00 0.00 0.00 89 1018.9
20260509231542 36 342 0.0 0.0 0.00 0.00 0.00 89 1019.0
20260509230031 36 342 0.0 0.0 0.00 0.00 0.00 88 1019.2
20260509224519 37 342 0.0 0.0 0.00 0.00 0.00 88 1019.4
20260509223019 37 342 0.0 0.0 0.00 0.00 0.00 86 1019.4
20260509221518 37 342 0.0 0.0 0.00 0.00 0.00 86 1019.5
20260509220022 38 342 0.0 0.0 0.00 0.00 0.00 85 1019.5